Regional Weather Roundup
Issued by NWS Charleston, SC

Current Version | Previous Version | Graphics & Text | Print | Product List | Glossary On
Versions: 1 2 3 4 5 6 7 8 9 10 11 12 13 14 15 16 17 18 19 20 21 22 23 24 25 26 27 28 29 30 31 32 33 34 35 36 37 38 39 40 41 42 43 44 45 46 47 48 49 50
000
ASUS42 KCHS 242127
RWRCHS

REGIONAL WEATHER ROUNDUP
NATIONAL WEATHER SERVICE CHARLESTON SC
500 PM EDT FRI MAR 24 2017

NOTE: "FAIR" INDICATES FEW OR NO CLOUDS BELOW 12,000 FEET WITH NO
SIGNIFICANT WEATHER AND/OR OBSTRUCTIONS TO VISIBILITY.

NOT ALL STATIONS ARE QUALITY CONTROLLED. USE DATA WITH CAUTION...
ESPECIALLY DEWPOINT OBSERVATIONS.

SCZ027-030-031-034>040-042>050-242200-
...SOUTHEAST SOUTH CAROLINA...

CITY           SKY/WX    TMP DP  RH WIND       PRES   REMARKS
N CHARLESTON   MOSUNNY   74  47  38 SE15      30.39F
WATERFRONT PRK   N/A     67  59  75 SE7       30.39F
JOHNS ISLAND   MOCLDY    72  52  49 SE7       30.39F
PINOPOLIS        N/A     72  52  49 SE5       30.32F
MONCKS CORNER  MOCLDY    72  45  37 S8        30.38F
SUMMERVILLE    MOCLDY    72  46  40 SE7       30.38F
BEAUFORT MCAS  MOSUNNY   73  53  49 SE14      30.38F
BEAUFORT ARPT  FAIR      70  52  52 SE12G17   30.38F
HILTON HEAD IS MOSUNNY   68  55  64 E9        30.40F
WALTERBORO     PTCLDY    70  46  43 S9        30.37F
ALLENDALE      FAIR      75  45  33 SE9G17    30.34F

...SOUTHERN MIDLANDS AND PEE DEE...

CITY           SKY/WX    TMP DP  RH WIND       PRES   REMARKS
GEORGETOWN     CLOUDY    66  52  59 E9        30.41F
KINGSTREE      CLOUDY    70  46  43 SE8       30.37F
ORANGEBURG     CLOUDY    72  47  40 SE9       30.36F
BARNWELL       CLOUDY    75  50  41 SE9G16    30.35S
AIKEN          FAIR      72  45  37 S6        30.38S
MANNING        FAIR      72  45  37 S8        30.37F
COLUMBIA       MOSUNNY   76  45  33 S9        30.35F
SUMTER         MOSUNNY   73  43  34 S7        30.34F
FLORENCE       MOSUNNY   74  46  36 S14       30.37F
MYRTLE BEACH   NOT AVBL
N MYRTLE BEACH MOSUNNY   66  50  56 SE7       30.41F

$$

GAZ063-065-086>088-099>101-113>116-118-119-134>141-150-242200-
...SOUTHEAST GEORGIA...

CITY           SKY/WX    TMP DP  RH WIND       PRES   REMARKS
SAVANNAH ARPT  PTSUNNY   74  48  39 SE14      30.36F
HUNTER AAF     MOSUNNY   72  57  59 SE10G21   30.35F
FORT STEWART   PTSUNNY   72  51  48 E14       30.33F
STATESBORO     MOSUNNY   76  50  39 S15       30.35S
SYLVANIA       PTCLDY   N/A N/A N/A S7        30.35F
CLAXTON        MOCLDY    75  53  46 NE13      30.34S

...CSRA...CENTRAL AND FAR SOUTHEAST GEORGIA...

CITY           SKY/WX    TMP DP  RH WIND       PRES   REMARKS
THOMSON        PTSUNNY   74  45  35 S8        30.38F
AUGUSTA-BUSH   MOSUNNY   79  46  31 S10G20    30.33F
AUGUSTA-DANIEL SUNNY     76  42  29 SE9G18    30.34F
SWAINSBORO     FAIR      73  46  38 SE12      30.34S
VIDALIA        PTSUNNY   73  50  43 S7        30.33S
EASTMAN        FAIR      80  24  12 S8        30.33S
HAZLEHURST     FAIR      77  51  39 SE9       30.30F
ALMA           MOSUNNY   76  49  38 SE12G20   30.31F
WAYCROSS       PTSUNNY   77  53  44 SE9G23    30.31S
JESUP          MOCLDY    72  50  46 SE8       30.34S
BAXLEY         FAIR      77  54  44 SE13      30.31F
BRUNSWICK      CLOUDY    72  57  60 E10       30.36F
SAINT SIMONS   CLOUDY    70  57  63 E9G28     30.35F

$$

SCZ027-028-034-036>038-045-046-048>050-GAZ119-141-242200-
...LAKE AND SUPPLEMENTAL COASTAL OBSERVATIONS...

STATION/POSITION TIME  TEMP    WIND        PRES    WAVE   SWELL
                       AIR SEA DIR/SP/G            HT/PER HT/PER/DIR
                 (UTC) (F)     (DEG/KT/KT) (MB)    (FT/S) (FT/S/D)
WINYAH BAY       2045   64     100/  8     1030.0S
LAKE MURRAY      2120   71     180/  6/  7 1027.1
ACE BASIN NERRS  2045   72     120/  5     1029.0F
FORT PULASKI     2100   62 61   90/ 10/ 10 1029.0
SAPELO ISLAND    2100   71     100/  6     1028.0

$$

ANZ835-935-AMZ111-154-330-350-352-354-370-450-454-472-242200-
...C-MAN AND BUOY OBSERVATIONS...

STATION/POSITION TIME  TEMP    WIND        PRES    WAVE   SWELL
                       AIR SEA DIR/SP/G            HT/PER HT/PER/DIR
                 (UTC) (F)     (DEG/KT/KT) (MB)    (FT/S) (FT/S/D)
BUOY 41004       2050   69 72  130/ 14/ 16 1029.1F   4/ 8   3/110/ 8
BUOY 41008       2050   65 63  100/  8/  8 1028.1F   5/ 8   5/110/ 8
FOLLY BEACH CMAN 2100   63      80/  6/  7 1030.1F
CAPERS NEARSHORE 2108   61      70/  6/  8 1029.1F
FRIPP NEARSHORE  2108   62 61   70/  6/  8 1028.6F


STATION/POSITION TIME  TEMP    WIND        PRES    WAVE   SWELL
                       AIR SEA DIR/SP/G            HT/PER HT/PER/DIR
                 (UTC) (F)     (DEG/KT/KT) (MB)    (FT/S) (FT/S/D)
5E ST. MARYS GA  2100      64                N/A     5/ 7   2/ 70/11
FRYING PAN BUOY  2110   68 73  180/ 12/ 16 1029.7
BUOY 41025       2050   65 74  210/ 16/ 21 1030.5F   4/10   3/ 80/10
CAPE LOOKOUT NC  2100   66     210/ 11/ 14 1030.0F
BUOY 41002       2050   64 74   80/ 12/ 14 1031.2F   6/ 9   5/ 50/ 9
BUOY 41010       NOT AVBL
ST AUGUSTINE FL  2100   67 67   70/  7/  7 1027.8F


$$




USA.gov is the U.S. government's official web portal to all federal, state and local government web resources and services.